TimeEST,TemperatureF,Dew PointF,Humidity,Sea Level PressureIn,VisibilityMPH,Wind Direction,Wind SpeedMPH,Gust SpeedMPH,PrecipitationIn,Events,Conditions,WindDirDegrees,DateUTC
12:15 AM,28.9,28.0,96,30.11,7.0,Calm,Calm,-,N/A,,Clear,0,2012-11-09 05:15:00
12:35 AM,30.0,29.1,96,30.11,10.0,Calm,Calm,-,N/A,,Clear,0,2012-11-09 05:35:00
12:54 AM,29.7,28.6,96,30.12,10.0,Calm,Calm,-,N/A,,Clear,0,2012-11-09 05:54:00
1:15 AM,28.6,27.7,96,30.12,7.0,Calm,Calm,-,N/A,,Clear,0,2012-11-09 06:15:00
1:35 AM,29.8,29.1,97,30.13,7.0,Calm,Calm,-,N/A,,Clear,0,2012-11-09 06:35:00
1:54 AM,27.5,26.6,96,30.13,7.0,Calm,Calm,-,N/A,,Clear,0,2012-11-09 06:54:00
2:15 AM,28.6,27.9,97,30.13,7.0,Calm,Calm,-,N/A,,Mostly Cloudy,0,2012-11-09 07:15:00
2:34 AM,29.8,28.9,96,30.13,7.0,Calm,Calm,-,N/A,,Mostly Cloudy,0,2012-11-09 07:34:00
2:54 AM,29.1,28.2,96,30.13,10.0,Calm,Calm,-,N/A,,Overcast,0,2012-11-09 07:54:00
3:15 AM,31.6,30.6,96,30.13,7.0,Calm,Calm,-,N/A,,Overcast,0,2012-11-09 08:15:00
3:34 AM,32.0,30.6,94,30.13,7.0,Calm,Calm,-,N/A,,Overcast,0,2012-11-09 08:34:00
3:54 AM,32.9,31.1,93,30.12,7.0,Calm,Calm,-,N/A,,Overcast,0,2012-11-09 08:54:00
4:14 AM,33.1,31.1,92,30.13,7.0,Calm,Calm,-,N/A,,Overcast,0,2012-11-09 09:14:00
4:34 AM,32.9,31.1,93,30.13,7.0,Calm,Calm,-,N/A,,Overcast,0,2012-11-09 09:34:00
4:55 AM,32.4,31.1,95,30.13,5.0,Calm,Calm,-,N/A,,Scattered Clouds,0,2012-11-09 09:55:00
5:14 AM,32.5,31.5,96,30.14,5.0,Calm,Calm,-,N/A,,Mostly Cloudy,0,2012-11-09 10:14:00
5:34 AM,34.3,32.2,92,30.14,5.0,Calm,Calm,-,N/A,,Overcast,0,2012-11-09 10:34:00
5:55 AM,34.3,32.0,91,30.14,5.0,Calm,Calm,-,N/A,,Overcast,0,2012-11-09 10:55:00
6:14 AM,34.3,32.0,91,30.14,5.0,Calm,Calm,-,N/A,,Overcast,0,2012-11-09 11:14:00
6:55 AM,35.2,32.9,91,30.14,5.0,Calm,Calm,-,N/A,,Overcast,0,2012-11-09 11:55:00
7:14 AM,35.4,33.4,92,30.14,5.0,Calm,Calm,-,N/A,,Overcast,0,2012-11-09 12:14:00
7:35 AM,35.6,33.8,93,30.14,4.0,Calm,Calm,-,N/A,,Overcast,0,2012-11-09 12:35:00
7:55 AM,36.1,34.3,93,30.14,4.0,Calm,Calm,-,N/A,,Overcast,0,2012-11-09 12:55:00
8:14 AM,36.5,34.5,93,30.15,4.0,Calm,Calm,-,N/A,,Overcast,0,2012-11-09 13:14:00
8:35 AM,37.4,35.2,92,30.16,3.0,Calm,Calm,-,N/A,,Overcast,0,2012-11-09 13:35:00
8:55 AM,37.6,35.2,91,30.16,4.0,SSW,3.5,-,N/A,,Overcast,210,2012-11-09 13:55:00
9:14 AM,38.3,35.6,90,30.16,4.0,SSW,3.5,-,N/A,,Overcast,200,2012-11-09 14:14:00
9:35 AM,38.8,35.8,89,30.15,4.0,SSW,4.6,-,N/A,,Overcast,200,2012-11-09 14:35:00
9:54 AM,39.4,36.0,88,30.16,4.0,SSW,4.6,-,N/A,,Overcast,210,2012-11-09 14:54:00
10:14 AM,40.1,35.8,85,30.15,4.0,SSW,4.6,-,N/A,,Overcast,200,2012-11-09 15:14:00
10:35 AM,40.8,36.3,84,30.15,4.0,South,4.6,-,N/A,,Haze,190,2012-11-09 15:35:00
10:54 AM,41.7,36.9,83,30.15,4.0,South,3.5,-,N/A,,Haze,190,2012-11-09 15:54:00
11:14 AM,42.8,37.4,81,30.15,5.0,SSW,3.5,-,N/A,,Haze,200,2012-11-09 16:14:00
11:35 AM,43.7,37.6,79,30.15,5.0,South,4.6,-,N/A,,Haze,190,2012-11-09 16:35:00
11:54 AM,44.4,37.8,77,30.15,5.0,SW,5.8,-,N/A,,Haze,230,2012-11-09 16:54:00
12:15 PM,45.1,38.1,76,30.14,5.0,SSW,3.5,-,N/A,,Haze,210,2012-11-09 17:15:00
12:35 PM,45.7,38.7,76,30.13,5.0,SW,4.6,-,N/A,,Haze,220,2012-11-09 17:35:00
12:54 PM,45.9,38.8,76,30.12,5.0,South,3.5,-,N/A,,Haze,190,2012-11-09 17:54:00
1:15 PM,46.2,38.8,75,30.12,5.0,SSW,4.6,-,N/A,,Haze,200,2012-11-09 18:15:00
1:35 PM,46.6,38.7,74,30.10,5.0,South,5.8,-,N/A,,Haze,180,2012-11-09 18:35:00
1:54 PM,47.3,38.7,72,30.11,5.0,Calm,Calm,-,N/A,,Haze,0,2012-11-09 18:54:00
2:15 PM,47.8,38.3,70,30.11,5.0,Calm,Calm,-,N/A,,Haze,0,2012-11-09 19:15:00
2:34 PM,48.6,37.9,67,30.10,7.0,WSW,3.5,-,N/A,,Scattered Clouds,250,2012-11-09 19:34:00
2:54 PM,48.4,37.8,67,30.10,7.0,Calm,Calm,-,N/A,,Mostly Cloudy,0,2012-11-09 19:54:00
3:14 PM,49.1,37.8,65,30.10,7.0,Calm,Calm,-,N/A,,Mostly Cloudy,0,2012-11-09 20:14:00
3:34 PM,48.4,38.3,68,30.10,7.0,Calm,Calm,-,N/A,,Mostly Cloudy,0,2012-11-09 20:34:00
3:55 PM,48.6,38.3,68,30.10,7.0,ENE,4.6,-,N/A,,Overcast,70,2012-11-09 20:55:00
4:14 PM,48.4,38.3,68,30.10,7.0,NE,3.5,-,N/A,,Overcast,50,2012-11-09 21:14:00
4:34 PM,48.0,38.3,69,30.10,7.0,East,5.8,-,N/A,,Overcast,80,2012-11-09 21:34:00
4:55 PM,47.7,38.3,70,30.10,7.0,Calm,Calm,-,N/A,,Overcast,0,2012-11-09 21:55:00
5:14 PM,47.3,38.3,71,30.10,7.0,ENE,5.8,-,N/A,,Overcast,70,2012-11-09 22:14:00
5:34 PM,46.8,38.3,72,30.10,7.0,East,5.8,-,N/A,,Overcast,80,2012-11-09 22:34:00
5:55 PM,46.8,38.3,72,30.10,7.0,East,4.6,-,N/A,,Overcast,80,2012-11-09 22:55:00
6:14 PM,46.6,38.3,73,30.10,7.0,ESE,6.9,-,N/A,,Overcast,110,2012-11-09 23:14:00
6:35 PM,46.6,38.3,73,30.10,7.0,ESE,5.8,-,N/A,,Overcast,120,2012-11-09 23:35:00
6:55 PM,46.8,38.3,72,30.10,7.0,East,4.6,-,N/A,,Overcast,90,2012-11-09 23:55:00
7:14 PM,46.4,38.3,73,30.11,7.0,SE,4.6,-,N/A,,Overcast,130,2012-11-10 00:14:00
7:35 PM,46.6,38.1,72,30.11,7.0,ESE,3.5,-,N/A,,Overcast,110,2012-11-10 00:35:00
7:54 PM,46.6,37.9,72,30.11,7.0,SE,6.9,-,N/A,,Overcast,140,2012-11-10 00:54:00
8:15 PM,46.6,37.8,71,30.12,7.0,ESE,3.5,-,N/A,,Overcast,120,2012-11-10 01:15:00
8:34 PM,46.6,37.8,71,30.12,7.0,ESE,3.5,-,N/A,,Overcast,120,2012-11-10 01:34:00
8:55 PM,46.4,37.8,72,30.12,7.0,ESE,4.6,-,N/A,,Overcast,120,2012-11-10 01:55:00
9:15 PM,46.4,37.9,72,30.12,7.0,East,3.5,-,N/A,,Overcast,80,2012-11-10 02:15:00
9:34 PM,46.4,38.3,73,30.12,7.0,East,3.5,-,N/A,,Overcast,100,2012-11-10 02:34:00
9:55 PM,46.0,38.3,74,30.12,7.0,East,3.5,-,N/A,,Overcast,100,2012-11-10 02:55:00
10:15 PM,45.9,38.3,75,30.12,7.0,ESE,4.6,-,N/A,,Overcast,120,2012-11-10 03:15:00
10:34 PM,45.9,38.5,75,30.12,7.0,ESE,4.6,-,N/A,,Overcast,120,2012-11-10 03:34:00
10:55 PM,45.7,38.5,76,30.12,7.0,SE,3.5,-,N/A,,Overcast,130,2012-11-10 03:55:00
11:14 PM,45.5,38.5,76,30.11,7.0,ESE,3.5,-,N/A,,Overcast,110,2012-11-10 04:14:00
11:34 PM,45.5,38.5,76,30.12,7.0,ESE,3.5,-,N/A,,Overcast,110,2012-11-10 04:34:00
11:55 PM,45.3,38.5,77,30.12,7.0,Calm,Calm,-,N/A,,Overcast,0,2012-11-10 04:55:00